owner,sensor,date,latitude,longitude,vertical_datum,sea_water_temperature,qcFlag
Shell,ioos:station:wmo:42906:1,2021-06-01T00:02:00Z,27.0300,-92.0800,17.0,27.3,11111222
Shell,ioos:station:wmo:42906:1,2021-06-01T00:12:00Z,27.0300,-92.0800,17.0,27.2,11111222
Shell,ioos:station:wmo:42906:1,2021-06-01T00:22:00Z,27.0300,-92.0800,17.0,27.2,11111222
Shell,ioos:station:wmo:42906:1,2021-06-01T00:33:00Z,27.0300,-92.0800,17.0,27.3,11111222
Shell,ioos:station:wmo:42906:1,2021-06-01T00:43:00Z,27.0300,-92.0800,17.0,27.2,11111222
Shell,ioos:station:wmo:42906:1,2021-06-01T00:52:00Z,27.0300,-92.0800,17.0,27.2,11111222
Shell,ioos:station:wmo:42906:1,2021-06-01T01:02:00Z,27.0300,-92.0800,17.0,27.2,11111222
Shell,ioos:station:wmo:42906:1,2021-06-01T01:12:00Z,27.0300,-92.0800,17.0,27.3,11111222
Shell,ioos:station:wmo:42906:1,2021-06-01T01:23:00Z,27.0300,-92.0800,17.0,27.2,11111222
Shell,ioos:station:wmo:42906:1,2021-06-01T01:33:00Z,27.0300,-92.0800,17.0,27.2,11111222
Shell,ioos:station:wmo:42906:1,2021-06-01T01:42:00Z,27.0300,-92.0800,17.0,27.2,11111222
Shell,ioos:station:wmo:42906:1,2021-06-01T01:52:00Z,27.0300,-92.0800,17.0,27.2,11111222
Shell,ioos:station:wmo:42906:1,2021-06-01T02:02:00Z,27.0300,-92.0800,17.0,27.2,11111222
Shell,ioos:station:wmo:42906:1,2021-06-01T02:13:00Z,27.0300,-92.0800,17.0,27.1,11111222
Shell,ioos:station:wmo:42906:1,2021-06-01T02:23:00Z,27.0300,-92.0800,17.0,27.1,11111222
Shell,ioos:station:wmo:42906:1,2021-06-01T02:32:00Z,27.0300,-92.0800,17.0,27.1,11111222
Shell,ioos:station:wmo:42906:1,2021-06-01T02:42:00Z,27.0300,-92.0800,17.0,27.1,11111222
Shell,ioos:station:wmo:42906:1,2021-06-01T02:52:00Z,27.0300,-92.0800,17.0,27.2,11111222
Shell,ioos:station:wmo:42906:1,2021-06-01T03:03:00Z,27.0300,-92.0800,17.0,27.1,11111222
Shell,ioos:station:wmo:42906:1,2021-06-01T03:13:00Z,27.0300,-92.0800,17.0,27.1,11111222
Shell,ioos:station:wmo:42906:1,2021-06-01T03:22:00Z,27.0300,-92.0800,17.0,27.1,11111222
Shell,ioos:station:wmo:42906:1,2021-06-01T03:32:00Z,27.0300,-92.0800,17.0,27.1,11111222
Shell,ioos:station:wmo:42906:1,2021-06-01T03:42:00Z,27.0300,-92.0800,17.0,27.1,11111222
Shell,ioos:station:wmo:42906:1,2021-06-01T03:53:00Z,27.0300,-92.0800,17.0,27.1,11111222
Shell,ioos:station:wmo:42906:1,2021-06-01T04:03:00Z,27.0300,-92.0800,17.0,27.1,11111222
Shell,ioos:station:wmo:42906:1,2021-06-01T04:12:00Z,27.0300,-92.0800,17.0,27.1,11111222
Shell,ioos:station:wmo:42906:1,2021-06-01T04:22:00Z,27.0300,-92.0800,17.0,27.1,11111222
Shell,ioos:station:wmo:42906:1,2021-06-01T04:32:00Z,27.0300,-92.0800,17.0,27.1,11111222
Shell,ioos:station:wmo:42906:1,2021-06-01T04:43:00Z,27.0300,-92.0800,17.0,27.1,11111222
Shell,ioos:station:wmo:42906:1,2021-06-01T04:53:00Z,27.0300,-92.0800,17.0,27.0,11111222
Shell,ioos:station:wmo:42906:1,2021-06-01T05:02:00Z,27.0300,-92.0800,17.0,27.1,11111222
Shell,ioos:station:wmo:42906:1,2021-06-01T05:12:00Z,27.0300,-92.0800,17.0,27.1,11111222
Shell,ioos:station:wmo:42906:1,2021-06-01T05:22:00Z,27.0300,-92.0800,17.0,27.0,11111222
Shell,ioos:station:wmo:42906:1,2021-06-01T05:33:00Z,27.0300,-92.0800,17.0,27.0,11111222
Shell,ioos:station:wmo:42906:1,2021-06-01T05:43:00Z,27.0300,-92.0800,17.0,27.0,11111222
Shell,ioos:station:wmo:42906:1,2021-06-01T05:52:00Z,27.0300,-92.0800,17.0,27.0,11111222
Shell,ioos:station:wmo:42906:1,2021-06-01T06:02:00Z,27.0300,-92.0800,17.0,27.0,11111222
Shell,ioos:station:wmo:42906:1,2021-06-01T06:12:00Z,27.0300,-92.0800,17.0,27.1,11111222
Shell,ioos:station:wmo:42906:1,2021-06-01T06:23:00Z,27.0300,-92.0800,17.0,27.1,11111222
Shell,ioos:station:wmo:42906:1,2021-06-01T06:33:00Z,27.0300,-92.0800,17.0,27.1,11111222
Shell,ioos:station:wmo:42906:1,2021-06-01T06:42:00Z,27.0300,-92.0800,17.0,27.1,11111222
Shell,ioos:station:wmo:42906:1,2021-06-01T06:52:00Z,27.0300,-92.0800,17.0,27.1,11111222
Shell,ioos:station:wmo:42906:1,2021-06-01T07:02:00Z,27.0300,-92.0800,17.0,27.1,11111222
Shell,ioos:station:wmo:42906:1,2021-06-01T07:13:00Z,27.0300,-92.0800,17.0,27.1,11111222
Shell,ioos:station:wmo:42906:1,2021-06-01T07:23:00Z,27.0300,-92.0800,17.0,27.1,11111222
Shell,ioos:station:wmo:42906:1,2021-06-01T07:32:00Z,27.0300,-92.0800,17.0,27.1,11111222
Shell,ioos:station:wmo:42906:1,2021-06-01T07:43:00Z,27.0300,-92.0800,17.0,27.1,11111222
Shell,ioos:station:wmo:42906:1,2021-06-01T07:52:00Z,27.0300,-92.0800,17.0,27.1,11111222
Shell,ioos:station:wmo:42906:1,2021-06-01T08:03:00Z,27.0300,-92.0800,17.0,27.1,11111222
Shell,ioos:station:wmo:42906:1,2021-06-01T08:13:00Z,27.0300,-92.0800,17.0,27.1,11111222
Shell,ioos:station:wmo:42906:1,2021-06-01T08:22:00Z,27.0300,-92.0800,17.0,27.0,11111222
Shell,ioos:station:wmo:42906:1,2021-06-01T08:33:00Z,27.0300,-92.0800,17.0,27.1,11111222
Shell,ioos:station:wmo:42906:1,2021-06-01T08:42:00Z,27.0300,-92.0800,17.0,27.0,11111222
Shell,ioos:station:wmo:42906:1,2021-06-01T08:53:00Z,27.0300,-92.0800,17.0,27.0,11111222
Shell,ioos:station:wmo:42906:1,2021-06-01T09:03:00Z,27.0300,-92.0800,17.0,27.0,11111222
Shell,ioos:station:wmo:42906:1,2021-06-01T09:12:00Z,27.0300,-92.0800,17.0,27.0,11111222
Shell,ioos:station:wmo:42906:1,2021-06-01T09:23:00Z,27.0300,-92.0800,17.0,27.0,11111222
Shell,ioos:station:wmo:42906:1,2021-06-01T09:32:00Z,27.0300,-92.0800,17.0,27.0,11111222
Shell,ioos:station:wmo:42906:1,2021-06-01T09:43:00Z,27.0300,-92.0800,17.0,27.0,11111222
Shell,ioos:station:wmo:42906:1,2021-06-01T09:53:00Z,27.0300,-92.0800,17.0,27.0,11111222
Shell,ioos:station:wmo:42906:1,2021-06-01T10:02:00Z,27.0300,-92.0800,17.0,26.9,11111222
Shell,ioos:station:wmo:42906:1,2021-06-01T10:13:00Z,27.0300,-92.0800,17.0,26.9,11111222
Shell,ioos:station:wmo:42906:1,2021-06-01T10:23:00Z,27.0300,-92.0800,17.0,26.9,11111222
Shell,ioos:station:wmo:42906:1,2021-06-01T10:33:00Z,27.0300,-92.0800,17.0,26.9,11111222
Shell,ioos:station:wmo:42906:1,2021-06-01T10:43:00Z,27.0300,-92.0800,17.0,26.9,11111222
Shell,ioos:station:wmo:42906:1,2021-06-01T10:52:00Z,27.0300,-92.0800,17.0,26.9,11111222
Shell,ioos:station:wmo:42906:1,2021-06-01T11:03:00Z,27.0300,-92.0800,17.0,27.0,11111222
Shell,ioos:station:wmo:42906:1,2021-06-01T11:12:00Z,27.0300,-92.0800,17.0,26.9,11111222
Shell,ioos:station:wmo:42906:1,2021-06-01T11:23:00Z,27.0300,-92.0800,17.0,26.9,11111222
Shell,ioos:station:wmo:42906:1,2021-06-01T11:33:00Z,27.0300,-92.0800,17.0,27.0,11111222
Shell,ioos:station:wmo:42906:1,2021-06-01T11:42:00Z,27.0300,-92.0800,17.0,26.9,11111222
Shell,ioos:station:wmo:42906:1,2021-06-01T11:52:00Z,27.0300,-92.0800,17.0,27.0,11111222
Shell,ioos:station:wmo:42906:1,2021-06-01T12:02:00Z,27.0300,-92.0800,17.0,27.0,11111222
Shell,ioos:station:wmo:42906:1,2021-06-01T12:13:00Z,27.0300,-92.0800,17.0,26.9,11111222
Shell,ioos:station:wmo:42906:1,2021-06-01T12:23:00Z,27.0300,-92.0800,17.0,27.0,11111222
Shell,ioos:station:wmo:42906:1,2021-06-01T12:32:00Z,27.0300,-92.0800,17.0,27.0,11111222
Shell,ioos:station:wmo:42906:1,2021-06-01T12:42:00Z,27.0300,-92.0800,17.0,27.0,11111222
Shell,ioos:station:wmo:42906:1,2021-06-01T12:52:00Z,27.0300,-92.0800,17.0,27.0,11111222
Shell,ioos:station:wmo:42906:1,2021-06-01T13:03:00Z,27.0300,-92.0800,17.0,27.0,11111222
Shell,ioos:station:wmo:42906:1,2021-06-01T13:13:00Z,27.0300,-92.0800,17.0,27.0,11111222
Shell,ioos:station:wmo:42906:1,2021-06-01T13:22:00Z,27.0300,-92.0800,17.0,27.0,11111222
Shell,ioos:station:wmo:42906:1,2021-06-01T13:32:00Z,27.0300,-92.0800,17.0,27.0,11111222
Shell,ioos:station:wmo:42906:1,2021-06-01T13:42:00Z,27.0300,-92.0800,17.0,27.0,11111222
Shell,ioos:station:wmo:42906:1,2021-06-01T13:53:00Z,27.0300,-92.0800,17.0,27.0,11111222
Shell,ioos:station:wmo:42906:1,2021-06-01T14:02:00Z,27.0300,-92.0800,17.0,27.1,11111222
Shell,ioos:station:wmo:42906:1,2021-06-01T14:13:00Z,27.0300,-92.0800,17.0,27.1,11111222
Shell,ioos:station:wmo:42906:1,2021-06-01T14:23:00Z,27.0300,-92.0800,17.0,27.0,11111222
Shell,ioos:station:wmo:42906:1,2021-06-01T14:32:00Z,27.0300,-92.0800,17.0,27.0,11111222
Shell,ioos:station:wmo:42906:1,2021-06-01T14:43:00Z,27.0300,-92.0800,17.0,27.0,11111222
Shell,ioos:station:wmo:42906:1,2021-06-01T14:53:00Z,27.0300,-92.0800,17.0,27.0,11111222
Shell,ioos:station:wmo:42906:1,2021-06-01T15:03:00Z,27.0300,-92.0800,17.0,27.0,11111222
Shell,ioos:station:wmo:42906:1,2021-06-01T15:13:00Z,27.0300,-92.0800,17.0,27.0,11111222
Shell,ioos:station:wmo:42906:1,2021-06-01T15:22:00Z,27.0300,-92.0800,17.0,27.1,11111222
Shell,ioos:station:wmo:42906:1,2021-06-01T15:33:00Z,27.0300,-92.0800,17.0,27.1,11111222
Shell,ioos:station:wmo:42906:1,2021-06-01T15:42:00Z,27.0300,-92.0800,17.0,27.2,11111222
Shell,ioos:station:wmo:42906:1,2021-06-01T15:53:00Z,27.0300,-92.0800,17.0,27.2,11111222
Shell,ioos:station:wmo:42906:1,2021-06-01T16:03:00Z,27.0300,-92.0800,17.0,27.1,11111222
Shell,ioos:station:wmo:42906:1,2021-06-01T16:12:00Z,27.0300,-92.0800,17.0,27.1,11111222
Shell,ioos:station:wmo:42906:1,2021-06-01T16:23:00Z,27.0300,-92.0800,17.0,27.2,11111222
Shell,ioos:station:wmo:42906:1,2021-06-01T16:33:00Z,27.0300,-92.0800,17.0,27.2,11111222
Shell,ioos:station:wmo:42906:1,2021-06-01T16:43:00Z,27.0300,-92.0800,17.0,27.3,11111222
Shell,ioos:station:wmo:42906:1,2021-06-01T16:53:00Z,27.0300,-92.0800,17.0,27.3,11111222
Shell,ioos:station:wmo:42906:1,2021-06-01T17:02:00Z,27.0300,-92.0800,17.0,27.2,11111222
Shell,ioos:station:wmo:42906:1,2021-06-01T17:13:00Z,27.0300,-92.0800,17.0,27.3,11111222
Shell,ioos:station:wmo:42906:1,2021-06-01T17:23:00Z,27.0300,-92.0800,17.0,27.2,11111222
Shell,ioos:station:wmo:42906:1,2021-06-01T17:32:00Z,27.0300,-92.0800,17.0,27.2,11111222
Shell,ioos:station:wmo:42906:1,2021-06-01T17:42:00Z,27.0300,-92.0800,17.0,27.3,11111222
Shell,ioos:station:wmo:42906:1,2021-06-01T17:52:00Z,27.0300,-92.0800,17.0,27.3,11111222
Shell,ioos:station:wmo:42906:1,2021-06-01T18:03:00Z,27.0300,-92.0800,17.0,27.4,11111222
Shell,ioos:station:wmo:42906:1,2021-06-01T18:13:00Z,27.0300,-92.0800,17.0,27.4,11111222
Shell,ioos:station:wmo:42906:1,2021-06-01T18:22:00Z,27.0300,-92.0800,17.0,27.4,11111222
Shell,ioos:station:wmo:42906:1,2021-06-01T18:32:00Z,27.0300,-92.0800,17.0,27.4,11111222
Shell,ioos:station:wmo:42906:1,2021-06-01T18:42:00Z,27.0300,-92.0800,17.0,27.4,11111222
Shell,ioos:station:wmo:42906:1,2021-06-01T18:53:00Z,27.0300,-92.0800,17.0,27.4,11111222
Shell,ioos:station:wmo:42906:1,2021-06-01T19:03:00Z,27.0300,-92.0800,17.0,27.4,11111222
Shell,ioos:station:wmo:42906:1,2021-06-01T19:12:00Z,27.0300,-92.0800,17.0,27.4,11111222
Shell,ioos:station:wmo:42906:1,2021-06-01T19:22:00Z,27.0300,-92.0800,17.0,27.4,11111222
Shell,ioos:station:wmo:42906:1,2021-06-01T19:33:00Z,27.0300,-92.0800,17.0,27.3,11111222
Shell,ioos:station:wmo:42906:1,2021-06-01T19:43:00Z,27.0300,-92.0800,17.0,27.4,11111222
Shell,ioos:station:wmo:42906:1,2021-06-01T19:53:00Z,27.0300,-92.0800,17.0,27.4,11111222
Shell,ioos:station:wmo:42906:1,2021-06-01T20:02:00Z,27.0300,-92.0800,17.0,27.4,11111222
Shell,ioos:station:wmo:42906:1,2021-06-01T20:13:00Z,27.0300,-92.0800,17.0,27.4,11111222
Shell,ioos:station:wmo:42906:1,2021-06-01T20:22:00Z,27.0300,-92.0800,17.0,27.4,11111222
Shell,ioos:station:wmo:42906:1,2021-06-01T20:33:00Z,27.0300,-92.0800,17.0,27.4,11111222
Shell,ioos:station:wmo:42906:1,2021-06-01T20:43:00Z,27.0300,-92.0800,17.0,27.4,11111222
Shell,ioos:station:wmo:42906:1,2021-06-01T20:53:00Z,27.0300,-92.0800,17.0,27.4,11111222
Shell,ioos:station:wmo:42906:1,2021-06-01T21:03:00Z,27.0300,-92.0800,17.0,27.4,11111222
Shell,ioos:station:wmo:42906:1,2021-06-01T21:12:00Z,27.0300,-92.0800,17.0,27.4,11111222
Shell,ioos:station:wmo:42906:1,2021-06-01T21:23:00Z,27.0300,-92.0800,17.0,27.3,11111222
Shell,ioos:station:wmo:42906:1,2021-06-01T21:32:00Z,27.0300,-92.0800,17.0,27.4,11111222
Shell,ioos:station:wmo:42906:1,2021-06-01T21:43:00Z,27.0300,-92.0800,17.0,27.4,11111222
Shell,ioos:station:wmo:42906:1,2021-06-01T21:53:00Z,27.0300,-92.0800,17.0,27.4,11111222
Shell,ioos:station:wmo:42906:1,2021-06-01T22:02:00Z,27.0300,-92.0800,17.0,27.4,11111222
Shell,ioos:station:wmo:42906:1,2021-06-01T22:12:00Z,27.0300,-92.0800,17.0,27.4,11111222
Shell,ioos:station:wmo:42906:1,2021-06-01T22:22:00Z,27.0300,-92.0800,17.0,27.4,11111222
Shell,ioos:station:wmo:42906:1,2021-06-01T22:33:00Z,27.0300,-92.0800,17.0,27.4,11111222
Shell,ioos:station:wmo:42906:1,2021-06-01T22:43:00Z,27.0300,-92.0800,17.0,27.4,11111222
Shell,ioos:station:wmo:42906:1,2021-06-01T22:52:00Z,27.0300,-92.0800,17.0,27.5,11111222
Shell,ioos:station:wmo:42906:1,2021-06-01T23:02:00Z,27.0300,-92.0800,17.0,27.5,11111222
Shell,ioos:station:wmo:42906:1,2021-06-01T23:12:00Z,27.0300,-92.0800,17.0,27.5,11111222
Shell,ioos:station:wmo:42906:1,2021-06-01T23:23:00Z,27.0300,-92.0800,17.0,27.5,11111222
Shell,ioos:station:wmo:42906:1,2021-06-01T23:33:00Z,27.0300,-92.0800,17.0,27.5,11111222
Shell,ioos:station:wmo:42906:1,2021-06-01T23:43:00Z,27.0300,-92.0800,17.0,27.5,11111222
Shell,ioos:station:wmo:42906:1,2021-06-01T23:53:00Z,27.0300,-92.0800,17.0,27.5,11111222
Shell,ioos:station:wmo:42906:1,2021-06-02T00:02:00Z,27.0300,-92.0800,17.0,27.5,11111222
Shell,ioos:station:wmo:42906:1,2021-06-02T00:13:00Z,27.0300,-92.0800,17.0,27.5,11111222
Shell,ioos:station:wmo:42906:1,2021-06-02T00:23:00Z,27.0300,-92.0800,17.0,27.4,11111222
Shell,ioos:station:wmo:42906:1,2021-06-02T00:32:00Z,27.0300,-92.0800,17.0,27.4,11111222
Shell,ioos:station:wmo:42906:1,2021-06-02T00:42:00Z,27.0300,-92.0800,17.0,27.5,11111222
Shell,ioos:station:wmo:42906:1,2021-06-02T00:52:00Z,27.0300,-92.0800,17.0,27.4,11111222
Shell,ioos:station:wmo:42906:1,2021-06-02T01:03:00Z,27.0300,-92.0800,17.0,27.4,11111222
Shell,ioos:station:wmo:42906:1,2021-06-02T01:13:00Z,27.0300,-92.0800,17.0,27.4,11111222
Shell,ioos:station:wmo:42906:1,2021-06-02T01:22:00Z,27.0300,-92.0800,17.0,27.5,11111222
Shell,ioos:station:wmo:42906:1,2021-06-02T01:32:00Z,27.0300,-92.0800,17.0,27.4,11111222
Shell,ioos:station:wmo:42906:1,2021-06-02T01:42:00Z,27.0300,-92.0800,17.0,27.4,11111222
Shell,ioos:station:wmo:42906:1,2021-06-02T01:53:00Z,27.0300,-92.0800,17.0,27.5,11111222
Shell,ioos:station:wmo:42906:1,2021-06-02T02:03:00Z,27.0300,-92.0800,17.0,27.5,11111222
Shell,ioos:station:wmo:42906:1,2021-06-02T02:12:00Z,27.0300,-92.0800,17.0,27.4,11111222
Shell,ioos:station:wmo:42906:1,2021-06-02T02:22:00Z,27.0300,-92.0800,17.0,27.4,11111222
Shell,ioos:station:wmo:42906:1,2021-06-02T02:32:00Z,27.0300,-92.0800,17.0,27.4,11111222
Shell,ioos:station:wmo:42906:1,2021-06-02T02:43:00Z,27.0300,-92.0800,17.0,27.4,11111222
Shell,ioos:station:wmo:42906:1,2021-06-02T02:53:00Z,27.0300,-92.0800,17.0,27.4,11111222
Shell,ioos:station:wmo:42906:1,2021-06-02T03:02:00Z,27.0300,-92.0800,17.0,27.4,11111222
Shell,ioos:station:wmo:42906:1,2021-06-02T03:12:00Z,27.0300,-92.0800,17.0,27.4,11111222
Shell,ioos:station:wmo:42906:1,2021-06-02T03:22:00Z,27.0300,-92.0800,17.0,27.4,11111222
Shell,ioos:station:wmo:42906:1,2021-06-02T03:33:00Z,27.0300,-92.0800,17.0,27.4,11111222
Shell,ioos:station:wmo:42906:1,2021-06-02T03:43:00Z,27.0300,-92.0800,17.0,27.4,11111222
Shell,ioos:station:wmo:42906:1,2021-06-02T03:52:00Z,27.0300,-92.0800,17.0,27.4,11111222
Shell,ioos:station:wmo:42906:1,2021-06-02T04:02:00Z,27.0300,-92.0800,17.0,27.4,11111222
Shell,ioos:station:wmo:42906:1,2021-06-02T04:12:00Z,27.0300,-92.0800,17.0,27.4,11111222
Shell,ioos:station:wmo:42906:1,2021-06-02T04:23:00Z,27.0300,-92.0800,17.0,27.4,11111222
Shell,ioos:station:wmo:42906:1,2021-06-02T04:33:00Z,27.0300,-92.0800,17.0,27.4,11111222
Shell,ioos:station:wmo:42906:1,2021-06-02T04:42:00Z,27.0300,-92.0800,17.0,27.4,11111222
Shell,ioos:station:wmo:42906:1,2021-06-02T04:52:00Z,27.0300,-92.0800,17.0,27.4,11111222
Shell,ioos:station:wmo:42906:1,2021-06-02T05:02:00Z,27.0300,-92.0800,17.0,27.4,11111222
Shell,ioos:station:wmo:42906:1,2021-06-02T05:13:00Z,27.0300,-92.0800,17.0,27.4,11111222
Shell,ioos:station:wmo:42906:1,2021-06-02T05:23:00Z,27.0300,-92.0800,17.0,27.4,11111222
Shell,ioos:station:wmo:42906:1,2021-06-02T05:32:00Z,27.0300,-92.0800,17.0,27.4,11111222
Shell,ioos:station:wmo:42906:1,2021-06-02T05:42:00Z,27.0300,-92.0800,17.0,27.4,11111222
Shell,ioos:station:wmo:42906:1,2021-06-02T05:52:00Z,27.0300,-92.0800,17.0,27.4,11111222
Shell,ioos:station:wmo:42906:1,2021-06-02T06:03:00Z,27.0300,-92.0800,17.0,27.4,11111222
Shell,ioos:station:wmo:42906:1,2021-06-02T06:13:00Z,27.0300,-92.0800,17.0,27.4,11111222
Shell,ioos:station:wmo:42906:1,2021-06-02T06:22:00Z,27.0300,-92.0800,17.0,27.4,11111222
Shell,ioos:station:wmo:42906:1,2021-06-02T06:32:00Z,27.0300,-92.0800,17.0,27.4,11111222
Shell,ioos:station:wmo:42906:1,2021-06-02T06:42:00Z,27.0300,-92.0800,17.0,27.4,11111222
Shell,ioos:station:wmo:42906:1,2021-06-02T06:53:00Z,27.0300,-92.0800,17.0,27.4,11111222
Shell,ioos:station:wmo:42906:1,2021-06-02T07:03:00Z,27.0300,-92.0800,17.0,27.4,11111222
Shell,ioos:station:wmo:42906:1,2021-06-02T07:12:00Z,27.0300,-92.0800,17.0,27.4,11111222
Shell,ioos:station:wmo:42906:1,2021-06-02T07:23:00Z,27.0300,-92.0800,17.0,27.4,11111222
Shell,ioos:station:wmo:42906:1,2021-06-02T07:32:00Z,27.0300,-92.0800,17.0,27.4,11111222
Shell,ioos:station:wmo:42906:1,2021-06-02T07:43:00Z,27.0300,-92.0800,17.0,27.4,11111222
Shell,ioos:station:wmo:42906:1,2021-06-02T07:53:00Z,27.0300,-92.0800,17.0,27.4,11111222
Shell,ioos:station:wmo:42906:1,2021-06-02T08:02:00Z,27.0300,-92.0800,17.0,27.4,11111222
Shell,ioos:station:wmo:42906:1,2021-06-02T08:13:00Z,27.0300,-92.0800,17.0,27.4,11111222
Shell,ioos:station:wmo:42906:1,2021-06-02T08:22:00Z,27.0300,-92.0800,17.0,27.4,11111222
Shell,ioos:station:wmo:42906:1,2021-06-02T08:33:00Z,27.0300,-92.0800,17.0,27.4,11111222
Shell,ioos:station:wmo:42906:1,2021-06-02T08:43:00Z,27.0300,-92.0800,17.0,27.3,11111222
Shell,ioos:station:wmo:42906:1,2021-06-02T08:52:00Z,27.0300,-92.0800,17.0,27.3,11111222
Shell,ioos:station:wmo:42906:1,2021-06-02T09:03:00Z,27.0300,-92.0800,17.0,27.2,11111222
Shell,ioos:station:wmo:42906:1,2021-06-02T09:12:00Z,27.0300,-92.0800,17.0,27.2,11111222
Shell,ioos:station:wmo:42906:1,2021-06-02T09:23:00Z,27.0300,-92.0800,17.0,27.2,11111222
Shell,ioos:station:wmo:42906:1,2021-06-02T09:33:00Z,27.0300,-92.0800,17.0,27.2,11111222
Shell,ioos:station:wmo:42906:1,2021-06-02T09:42:00Z,27.0300,-92.0800,17.0,27.2,11111222
Shell,ioos:station:wmo:42906:1,2021-06-02T09:53:00Z,27.0300,-92.0800,17.0,27.2,11111222
Shell,ioos:station:wmo:42906:1,2021-06-02T10:02:00Z,27.0300,-92.0800,17.0,27.3,11111222
Shell,ioos:station:wmo:42906:1,2021-06-02T10:13:00Z,27.0300,-92.0800,17.0,27.3,11111222
Shell,ioos:station:wmo:42906:1,2021-06-02T10:23:00Z,27.0300,-92.0800,17.0,27.3,11111222
Shell,ioos:station:wmo:42906:1,2021-06-02T10:32:00Z,27.0300,-92.0800,17.0,27.3,11111222
Shell,ioos:station:wmo:42906:1,2021-06-02T10:43:00Z,27.0300,-92.0800,17.0,27.3,11111222
Shell,ioos:station:wmo:42906:1,2021-06-02T10:53:00Z,27.0300,-92.0800,17.0,27.3,11111222
Shell,ioos:station:wmo:42906:1,2021-06-02T11:03:00Z,27.0300,-92.0800,17.0,27.3,11111222
Shell,ioos:station:wmo:42906:1,2021-06-02T11:13:00Z,27.0300,-92.0800,17.0,27.3,11111222
Shell,ioos:station:wmo:42906:1,2021-06-02T11:22:00Z,27.0300,-92.0800,17.0,27.3,11111222
Shell,ioos:station:wmo:42906:1,2021-06-02T11:33:00Z,27.0300,-92.0800,17.0,27.2,11111222
Shell,ioos:station:wmo:42906:1,2021-06-02T11:43:00Z,27.0300,-92.0800,17.0,27.2,11111222
Shell,ioos:station:wmo:42906:1,2021-06-02T11:52:00Z,27.0300,-92.0800,17.0,27.2,11111222
Shell,ioos:station:wmo:42906:1,2021-06-02T12:02:00Z,27.0300,-92.0800,17.0,27.2,11111222
Shell,ioos:station:wmo:42906:1,2021-06-02T12:12:00Z,27.0300,-92.0800,17.0,27.2,11111222
Shell,ioos:station:wmo:42906:1,2021-06-02T12:23:00Z,27.0300,-92.0800,17.0,27.2,11111222
Shell,ioos:station:wmo:42906:1,2021-06-02T12:32:00Z,27.0300,-92.0800,17.0,27.2,11111222
Shell,ioos:station:wmo:42906:1,2021-06-02T12:43:00Z,27.0300,-92.0800,17.0,27.2,11111222
Shell,ioos:station:wmo:42906:1,2021-06-02T12:53:00Z,27.0300,-92.0800,17.0,27.2,11111222
Shell,ioos:station:wmo:42906:1,2021-06-02T13:02:00Z,27.0300,-92.0800,17.0,27.2,11111222
Shell,ioos:station:wmo:42906:1,2021-06-02T13:12:00Z,27.0300,-92.0800,17.0,27.2,11111222
Shell,ioos:station:wmo:42906:1,2021-06-02T13:22:00Z,27.0300,-92.0800,17.0,27.2,11111222
Shell,ioos:station:wmo:42906:1,2021-06-02T13:33:00Z,27.0300,-92.0800,17.0,27.2,11111222
Shell,ioos:station:wmo:42906:1,2021-06-02T13:43:00Z,27.0300,-92.0800,17.0,27.2,11111222
Shell,ioos:station:wmo:42906:1,2021-06-02T13:52:00Z,27.0300,-92.0800,17.0,27.2,11111222
Shell,ioos:station:wmo:42906:1,2021-06-02T14:02:00Z,27.0300,-92.0800,17.0,27.2,11111222
Shell,ioos:station:wmo:42906:1,2021-06-02T14:12:00Z,27.0300,-92.0800,17.0,27.2,11111222
Shell,ioos:station:wmo:42906:1,2021-06-02T14:23:00Z,27.0300,-92.0800,17.0,27.2,11111222
Shell,ioos:station:wmo:42906:1,2021-06-02T14:33:00Z,27.0300,-92.0800,17.0,27.2,11111222
Shell,ioos:station:wmo:42906:1,2021-06-02T14:42:00Z,27.0300,-92.0800,17.0,27.3,11111222
Shell,ioos:station:wmo:42906:1,2021-06-02T14:52:00Z,27.0300,-92.0800,17.0,27.2,11111222
Shell,ioos:station:wmo:42906:1,2021-06-02T15:02:00Z,27.0300,-92.0800,17.0,27.2,11111222
Shell,ioos:station:wmo:42906:1,2021-06-02T15:13:00Z,27.0300,-92.0800,17.0,27.3,11111222
Shell,ioos:station:wmo:42906:1,2021-06-02T15:23:00Z,27.0300,-92.0800,17.0,27.3,11111222
Shell,ioos:station:wmo:42906:1,2021-06-02T15:32:00Z,27.0300,-92.0800,17.0,27.3,11111222
Shell,ioos:station:wmo:42906:1,2021-06-02T15:42:00Z,27.0300,-92.0800,17.0,27.3,11111222
Shell,ioos:station:wmo:42906:1,2021-06-02T15:52:00Z,27.0300,-92.0800,17.0,27.3,11111222
Shell,ioos:station:wmo:42906:1,2021-06-02T16:03:00Z,27.0300,-92.0800,17.0,27.3,11111222
Shell,ioos:station:wmo:42906:1,2021-06-02T16:13:00Z,27.0300,-92.0800,17.0,27.3,11111222
Shell,ioos:station:wmo:42906:1,2021-06-02T16:22:00Z,27.0300,-92.0800,17.0,27.2,11111222
Shell,ioos:station:wmo:42906:1,2021-06-02T16:32:00Z,27.0300,-92.0800,17.0,27.2,11111222
Shell,ioos:station:wmo:42906:1,2021-06-02T16:42:00Z,27.0300,-92.0800,17.0,27.3,11111222
Shell,ioos:station:wmo:42906:1,2021-06-02T16:53:00Z,27.0300,-92.0800,17.0,27.3,11111222
Shell,ioos:station:wmo:42906:1,2021-06-02T17:03:00Z,27.0300,-92.0800,17.0,27.3,11111222
Shell,ioos:station:wmo:42906:1,2021-06-02T17:12:00Z,27.0300,-92.0800,17.0,27.3,11111222
Shell,ioos:station:wmo:42906:1,2021-06-02T17:22:00Z,27.0300,-92.0800,17.0,27.4,11111222
Shell,ioos:station:wmo:42906:1,2021-06-02T17:32:00Z,27.0300,-92.0800,17.0,27.4,11111222
Shell,ioos:station:wmo:42906:1,2021-06-02T17:43:00Z,27.0300,-92.0800,17.0,27.3,11111222
Shell,ioos:station:wmo:42906:1,2021-06-02T17:53:00Z,27.0300,-92.0800,17.0,27.3,11111222
Shell,ioos:station:wmo:42906:1,2021-06-02T18:02:00Z,27.0300,-92.0800,17.0,27.4,11111222
Shell,ioos:station:wmo:42906:1,2021-06-02T18:13:00Z,27.0300,-92.0800,17.0,27.5,11111222
Shell,ioos:station:wmo:42906:1,2021-06-02T18:22:00Z,27.0300,-92.0800,17.0,27.6,11111222
Shell,ioos:station:wmo:42906:1,2021-06-02T18:33:00Z,27.0300,-92.0800,17.0,27.7,11111222
Shell,ioos:station:wmo:42906:1,2021-06-02T18:43:00Z,27.0300,-92.0800,17.0,27.7,11111222
Shell,ioos:station:wmo:42906:1,2021-06-02T18:52:00Z,27.0300,-92.0800,17.0,27.7,11111222
Shell,ioos:station:wmo:42906:1,2021-06-02T19:03:00Z,27.0300,-92.0800,17.0,27.8,11111222
Shell,ioos:station:wmo:42906:1,2021-06-02T19:12:00Z,27.0300,-92.0800,17.0,27.8,11111222
Shell,ioos:station:wmo:42906:1,2021-06-02T19:23:00Z,27.0300,-92.0800,17.0,27.9,11111222
Shell,ioos:station:wmo:42906:1,2021-06-02T19:33:00Z,27.0300,-92.0800,17.0,28.0,11111222
Shell,ioos:station:wmo:42906:1,2021-06-02T19:42:00Z,27.0300,-92.0800,17.0,28.1,11111222
Shell,ioos:station:wmo:42906:1,2021-06-02T19:53:00Z,27.0300,-92.0800,17.0,28.1,11111222
Shell,ioos:station:wmo:42906:1,2021-06-02T20:02:00Z,27.0300,-92.0800,17.0,28.0,11111222
Shell,ioos:station:wmo:42906:1,2021-06-02T20:13:00Z,27.0300,-92.0800,17.0,28.0,11111222
Shell,ioos:station:wmo:42906:1,2021-06-02T20:23:00Z,27.0300,-92.0800,17.0,28.0,11111222
Shell,ioos:station:wmo:42906:1,2021-06-02T20:32:00Z,27.0300,-92.0800,17.0,28.1,11111222